Regional Weather Roundup
Issued by NWS Portland, ME

Home | Current Version | Previous Version | Text Only | Print | Product List | Glossary On
Versions: 1 2 3 4 5 6 7 8 9 10 11 12 13 14 15 16 17 18 19 20 21 22 23 24 25 26 27 28 29 30 31 32 33 34 35 36 37 38 39 40 41 42 43 44 45 46 47 48 49 50
000
ASUS41 KGYX 232110
RWRGYX
WEATHER ROUNDUP FOR MAINE AND NEW HAMPSHIRE
NATIONAL WEATHER SERVICE GRAY ME
500 PM EDT SAT SEP 23 2017

MEZ002-005-006-010-012-015-018-020-021-024-026-027-029-232200-
MAINE

CITY           SKY/WX    TMP DP  RH WIND       PRES   REMARKS
PORTLAND       MOSUNNY   75  55  49 S7        30.00S
SANFORD        SUNNY     80  61  52 SE3       30.01S
BAR HARBOR     SUNNY     74  61  63 SW9       29.98R
WISCASSET      SUNNY     75  59  57 VRB3      30.01R
ROCKLAND       SUNNY     69  61  75 S6        30.00R
FRYEBURG       SUNNY     83  62  49 CALM      30.02R
LEWISTONAUBURN SUNNY     83  57  41 SW5       30.00S
AUGUSTA        SUNNY     81  51  35 CALM      30.00S
WATERVILLE     SUNNY     80  60  50 CALM      29.97S
BANGOR         MOSUNNY   83  55  38 SW7       29.97S
GREENVILLE       N/A     79  63  57 N9        30.00S
MILLINOCKET    SUNNY     84  62  47 NW5       29.96S
HOULTON        MOSUNNY   83  62  49 W3        29.93S
PRESQUE ISLE   MOSUNNY   81  64  56 NW9       29.95S
FRENCHVILLE    SUNNY     76  56  49 NW10      29.97R
CARIBOU        SUNNY     82  61  48 NW7       29.94R
$$

NHZ002-005-008-009-011-012-014-232200-
NEW HAMPSHIRE

CITY           SKY/WX    TMP DP  RH WIND       PRES   REMARKS
PORTSMOUTH     MOSUNNY   73  58  60 SE6       29.99S
ROCHESTER      SUNNY     84  50  30 CALM      30.00S
NASHUA         SUNNY     84  61  45 N5        30.01S
MANCHESTER     MOSUNNY   85  55  35 NW6       29.99S
CONCORD        SUNNY     85  54  34 W5        30.01S
LACONIA        SUNNY     84  58  40 SW3       30.02S
PLYMOUTH       FAIR      83  56  40 W5        30.01S
BERLIN         MOSUNNY   83  55  38 VRB3      30.05R
WHITEFIELD     SUNNY     82  55  39 W3        30.06S
JAFFREY        SUNNY     84  53  34 VRB3      30.05S
KEENE          SUNNY     87  54  32 N7        30.02S
LEBANON        SUNNY     84  59  42 NE3       30.02S
MT WASHINGTON  PTSUNNY   55  54  94 NW21G39     N/A
$$

VTZ005-007-008-232200-
VERMONT

CITY           SKY/WX    TMP DP  RH WIND       PRES   REMARKS
ST JOHNSBURY     N/A     84  61  45 MISG      30.02S
MONTPELIER     SUNNY     80  61  52 VRB5      30.10S
BURLINGTON     PTSUNNY   85  57  38 E5        30.02F
$$

MAZ007-012-024-CTZ003-RIZ002-NYZ038-NYZ072-232200-
SOUTHERN NEW ENGLAND AND NY

CITY           SKY/WX    TMP DP  RH WIND       PRES   REMARKS
BOSTON         MOSUNNY   67  62  84 E7        30.01S
WORCESTER      SUNNY     80  57  45 N5        30.04S
NANTUCKET      FOG       62  62 100 N18       29.96S VSB 3/4
PROVIDENCE     MOSUNNY   82  67  60 NE9       29.99S
HARTFORD       MOSUNNY   86  52  30 NE12      29.99F
ALBANY         MOSUNNY   84  54  35 NW3       30.04F
NEW YORK CITY  MOSUNNY   86  50  28 N9        29.99S
$$

ANZ081-ANZ082-ANZ150-NHZ014-MEZ023>029-232200-
COASTAL MARINE OBSERVATIONS

STATION/POSITION TIME  TEMP    WIND        PRES    WAVE
                       AIR SEA DIR/SP/G            HT/PER
                 (UTC) (F)     (DEG/KT/KT) (MB)    (FT/S)
MOUNT DESERT ROC 2100   59     180/  5/  6 1015.7R
MATINICUS ROCK   2000   63     170/  5/  5 1015.4S
ISLE OF SHOALS   2000   63     140/  3/  4 1016.0F
JEFFREYS LEDGE   2036      62                N/A     4/11
CASHES LEDGE BUO 1950   60 56              1015.8    5/10
GEORGES BANK BUO 1950   75 77              1011.6    6/ 8
$$

.............KEY..............
   WCI - WIND CHILL
   TC  - TEMPERATURE IN CELSIUS
   VSB - VISIBILITY IN MILES
   HX  - HEAT INDEX
   FAIR- INDICATES FEW OR NO CLOUDS BELOW 12,000 FT, WITH NO
         SIGNIFICANT WEATHER AND/OR OBSTRUCTIONS TO VISIBILITY.





USA.gov is the U.S. government's official web portal to all federal, state and local government web resources and services.